GW1378 Weather Reports


Display with metric or nautical units.
time (UTC)temp
F
wind
direction
speed
MPH
gust
MPH
rain 1hr
in
rain 24hr
in
rain mn
in
humidity
%
barometer
mb
20260505041611 37 335 0.0 0.0 0.07 0.18 0.18 84 1023.2
20260505034558 38 335 0.0 4.0 0.04 0.14 0.14 84 1023.2
20260505033058 39 312 0.0 0.0 0.05 0.12 0.12 83 1022.7
20260505031600 39 312 0.0 0.0 0.04 0.11 0.11 84 1022.6
20260505030057 39 312 0.0 2.0 0.04 0.11 0.11 84 1022.2
20260505024555 40 312 0.0 0.0 0.03 0.10 0.10 84 1022.0
20260505023056 40 312 0.0 0.0 0.00 0.07 0.07 84 1021.9
20260505021555 40 312 0.0 0.0 0.00 0.07 0.07 84 1021.4
20260505020055 41 312 0.0 1.0 0.00 0.07 0.07 84 1021.1
20260505014606 41 312 0.0 1.0 0.00 0.07 0.07 84 1021.2
20260505013054 41 312 0.0 1.0 0.00 0.07 0.07 84 1020.7
20260505011602 41 312 0.0 0.0 0.01 0.07 0.07 84 1021.1
20260505010055 41 312 0.0 1.0 0.03 0.07 0.07 84 1020.9
20260505004553 41 312 0.0 0.0 0.05 0.07 0.07 84 1020.6
20260505003052 41 312 0.0 1.0 0.06 0.07 0.07 84 1020.7
20260505001604 41 312 0.0 1.0 0.06 0.06 0.06 84 1021.1
20260505000113 42 312 1.0 4.0 0.04 0.04 0.04 82 1021.5
20260504234606 43 274 2.0 4.0 0.02 0.02 0.02 78 1020.9
20260504233050 46 254 3.0 5.0 0.01 0.01 0.01 70 1020.3
20260504231546 48 311 1.0 5.0 0.00 0.00 0.00 56 1019.5
20260504230046 49 71 1.0 12.0 0.00 0.00 0.00 52 1018.8
20260504224603 52 5 4.0 10.0 0.00 0.00 0.00 46 1018.5
20260504223046 55 316 3.0 6.0 0.00 0.00 0.00 44 1018.4
20260504221543 55 88 3.0 7.0 0.00 0.00 0.00 39 1018.5
20260504220042 55 74 1.0 4.0 0.00 0.00 0.00 36 1018.5
20260504214541 56 121 3.0 8.0 0.00 0.00 0.00 37 1018.6
20260504213100 57 123 4.0 8.0 0.00 0.00 0.00 36 1018.6
20260504211541 57 126 1.0 4.0 0.00 0.00 0.00 37 1018.6
20260504210040 57 20 2.0 8.0 0.00 0.00 0.00 37 1018.5
20260504204538 56 57 3.0 11.0 0.00 0.00 0.00 41 1018.7
20260504203037 54 338 2.0 9.0 0.00 0.00 0.00 42 1018.9
20260504201537 53 355 5.0 9.0 0.00 0.00 0.00 45 1019.0
20260504200036 51 30 2.0 11.0 0.00 0.00 0.00 51 1018.9
20260504194539 54 306 5.0 12.0 0.00 0.00 0.00 38 1019.1
20260504193040 57 57 3.0 11.0 0.00 0.00 0.00 33 1018.9
20260504191533 58 84 6.0 12.0 0.00 0.00 0.00 32 1019.0
20260504190032 59 9 3.0 8.0 0.00 0.00 0.00 30 1019.4
20260504184533 62 348 2.0 9.0 0.00 0.00 0.00 26 1019.0
20260504183028 62 309 2.0 9.0 0.00 0.00 0.00 23 1019.2
20260504181524 60 88 1.0 10.0 0.00 0.00 0.00 26 1019.4
20260504180022 59 93 4.0 7.0 0.00 0.00 0.00 25 1019.7
20260504174519 57 5 2.0 10.0 0.00 0.00 0.00 28 1020.1
20260504173031 59 355 2.0 9.0 0.00 0.00 0.00 28 1020.3
20260504171522 57 315 3.0 8.0 0.00 0.00 0.00 29 1020.6
20260504090119 28 203 0.0 3.0 0.00 0.00 0.00 71 1024.3
20260504081554 29 203 0.0 2.0 0.00 0.00 0.00 69 1024.6
20260504050020 39 290 0.0 0.0 0.00 0.00 0.00 51 1025.6
20260504044534 40 290 0.0 0.0 0.00 0.00 0.00 52 1025.6
20260504043020 40 290 0.0 0.0 0.00 0.00 0.00 51 1025.7